Location: Les Salelles
(44.4192°N, 4.1044°E)
Time: 15:33:36
(UTC+00:00)

Helios 1A Rocket - Pass Details

Date: 20 January 2021
Orbit: 562 x 587 km, 98.3° (Epoch: 26 February)

Event Time Altitude Azimuth Distance (km) Brightness Sun altitude
Rises 18:33:21 0° 166° (SSE) 2,795 6.4 -20.6°
Reaches altitude 10° 18:35:30 10° 167° (SSE) 1,902 5.5 -20.9°
Maximum altitude 18:39:38 86° 256° (WSW) 595 2.9 -21.7°
Drops below altitude 10° 18:43:49 10° 346° (NNW) 1,922 5.7 -22.4°
Sets 18:45:59 0° 347° (NNW) 2,827 6.5 -22.8°
